Date,TemperatureHighF,TemperatureAvgF,TemperatureLowF,DewpointHighF,DewpointAvgF,DewpointLowF,HumidityHigh,HumidityAvg,HumidityLow,PressureMaxIn,PressureMinIn,WindSpeedMaxMPH,WindSpeedAvgMPH,GustSpeedMaxMPH,PrecipitationSumIn
2013-1-1,23.6,16.2,7.3,16.2,8.4,3.7,85,72,51,30.28,30.14,12,6,15,0.00
2013-1-2,28.6,16.8,6.1,17.1,10.3,2.6,87,76,53,30.26,30.14,6,3,11,0.00
2013-1-3,31.6,25.2,14.8,25.7,19.3,11.4,89,79,60,30.33,30.15,15,6,17,0.00
2013-1-4,34.5,21.9,10.2,22.8,16.3,7.1,88,80,60,30.32,30.23,14,6,19,0.00
2013-1-5,34.2,28.1,18.9,32.0,24.9,15.9,94,88,74,30.28,29.98,6,3,10,0.01
2013-1-6,34.7,24.2,14.2,32.1,20.2,12.3,93,85,72,30.37,29.97,13,6,18,0.00
2013-1-7,38.7,26.6,12.6,28.3,21.6,10.3,93,82,64,30.37,30.14,9,4,17,0.00
2013-1-8,45.6,34.1,25.4,32.9,28.0,22.3,89,79,57,30.17,30.06,8,4,10,0.00
2013-1-9,50.1,36.4,22.4,35.2,28.1,18.8,91,74,40,30.50,30.05,15,5,17,0.00
2013-1-10,44.6,33.1,20.2,44.1,28.6,18.2,98,85,55,30.50,29.83,5,2,10,0.58
2013-1-11,53.7,49.5,44.8,50.4,47.6,43.9,98,93,86,29.83,29.64,9,5,15,0.35
2013-1-12,50.2,39.9,27.8,47.5,36.4,25.5,92,87,79,29.98,29.72,11,6,13,0.00
2013-1-13,28.0,19.5,12.1,26.2,15.9,7.8,93,86,80,30.31,29.89,7,5,9,0.00
2013-1-14,13.6,12.1,11.1,12.0,9.1,7.4,94,88,83,30.47,30.30,3,1,3,0.00
2013-1-15,27.8,18.0,8.7,20.4,14.2,6.4,94,86,67,30.47,30.15,3,0,4,0.00
2013-1-16,34.8,25.5,12.9,29.0,21.1,11.0,94,84,74,30.16,29.89,9,3,15,0.00
2013-1-17,33.3,26.4,18.9,29.3,20.8,15.4,93,80,63,30.44,30.09,13,5,17,0.00
2013-1-18,42.2,30.7,16.6,32.2,24.6,13.9,90,78,65,30.46,29.97,11,5,16,0.01
2013-1-19,49.1,39.5,27.2,39.2,32.2,16.0,82,75,60,30.02,29.77,19,8,23,0.00
2013-1-20,26.8,16.8,12.4,15.1,8.2,5.0,78,69,58,30.34,30.02,19,8,24,0.00
2013-1-21,13.3,8.0,2.5,8.1,-0.3,-5.0,86,69,51,30.36,30.21,15,10,18,0.00
2013-1-22,11.7,6.2,-1.3,1.0,-2.3,-6.9,83,68,56,30.47,30.34,10,5,14,0.00
2013-1-23,24.3,16.0,8.8,12.8,6.4,0.4,80,66,56,30.40,30.14,18,4,27,0.00
2013-1-24,23.2,14.3,4.1,9.0,2.7,-3.7,72,60,43,30.66,30.37,15,6,17,0.00
2013-1-25,33.1,23.3,17.3,21.5,15.0,6.6,88,71,57,30.37,30.00,12,5,16,0.00
2013-1-26,27.8,19.2,7.6,14.9,10.4,3.9,87,69,50,30.42,30.23,7,2,10,0.00
2013-1-27,39.9,29.5,22.8,38.9,24.9,14.5,97,83,64,30.39,29.91,7,3,11,0.19
2013-1-28,54.0,45.6,40.0,53.4,44.9,39.2,99,97,93,29.94,29.76,7,3,12,0.04
2013-1-29,63.4,56.9,50.4,60.4,55.5,49.9,99,95,88,29.76,29.36,12,5,15,1.23
2013-1-30,50.6,33.5,18.2,50.1,31.8,13.9,99,93,81,29.72,29.23,16,8,22,0.43
2013-1-31,18.1,11.9,1.9,14.8,6.6,-3.9,87,79,73,30.28,29.73,16,12,24,0.00
2013-2-1,18.7,8.0,-0.8,14.7,1.5,-5.9,86,74,67,30.45,30.22,12,7,18,0.00
2013-2-2,25.5,17.3,6.6,22.2,13.8,3.4,91,86,77,30.23,30.04,15,5,17,0.00
2013-2-3,24.3,19.5,10.5,18.5,15.0,7.1,94,83,68,30.11,29.99,13,4,16,0.00
2013-2-4,31.5,24.9,15.2,26.5,20.7,12.5,90,84,79,30.04,29.83,11,5,12,0.00
2013-2-5,34.6,25.9,12.6,29.7,22.5,9.7,91,87,81,30.11,29.83,12,4,20,0.00
2013-2-6,41.6,32.5,19.9,32.3,27.0,17.6,94,81,66,30.23,30.08,6,2,12,0.00
2013-2-7,35.0,33.1,30.7,33.5,31.4,28.9,97,93,84,30.09,29.85,12,3,15,0.77
2013-2-8,30.6,25.9,22.7,28.8,23.2,19.9,93,89,87,30.41,30.00,16,9,19,0.00
2013-2-9,34.7,29.9,24.9,29.7,25.7,22.2,92,84,76,30.40,30.06,8,3,10,0.00
2013-2-10,46.8,40.3,33.1,45.2,37.8,28.5,96,91,72,30.07,29.49,17,7,29,0.30
2013-2-11,41.7,32.6,29.0,33.3,25.6,23.0,81,75,70,30.09,29.56,24,14,35,0.00
2013-2-12,32.0,27.2,21.0,25.3,22.7,19.1,96,83,73,30.14,29.94,10,4,11,0.00
2013-2-13,43.8,32.5,23.8,34.6,28.4,22.1,95,85,64,29.94,29.75,9,2,12,0.00
2013-2-14,40.5,35.6,31.7,32.0,30.4,27.3,92,81,68,30.00,29.68,13,6,19,0.00
2013-2-15,32.0,27.3,20.9,29.1,19.4,12.7,90,73,49,30.22,30.00,13,8,16,0.00
2013-2-16,25.4,18.4,12.3,13.9,9.7,6.1,80,69,54,30.23,30.15,11,8,14,0.00
2013-2-17,33.9,30.5,28.4,22.5,20.0,12.8,77,65,50,30.21,29.98,5,3,10,0.00
2013-2-18,53.9,39.7,24.2,45.9,33.4,20.2,94,79,65,29.97,29.45,21,9,24,0.22
2013-2-19,24.2,15.4,10.0,20.3,9.5,3.8,85,77,70,30.27,29.67,20,14,25,0.00
2013-2-20,21.8,13.8,5.4,15.6,8.3,0.0,89,78,67,30.42,30.27,10,6,14,0.00
2013-2-21,29.7,22.1,10.0,24.1,18.4,7.3,93,85,78,30.40,29.94,13,5,19,0.00
2013-2-22,33.4,28.2,24.7,31.4,25.4,21.3,95,89,78,29.97,29.80,13,6,16,0.04
2013-2-23,28.1,23.4,17.5,21.2,18.3,14.2,88,81,74,30.01,29.95,11,6,12,0.00
2013-2-24,37.3,24.8,10.0,27.4,19.7,7.9,93,81,64,30.16,30.00,4,1,5,0.06
2013-2-25,42.2,31.5,19.6,33.0,27.1,18.0,95,84,68,30.17,29.90,12,4,15,0.02
2013-2-26,34.3,32.1,30.8,30.6,29.5,27.2,97,90,76,29.90,29.48,21,13,26,0.02
2013-2-27,31.7,30.8,29.1,30.5,29.2,27.5,97,94,89,29.76,29.54,10,8,14,0.03
2013-2-28,34.5,32.0,29.0,31.3,29.2,24.8,93,90,84,30.08,29.76,11,9,15,0.06
2013-3-1,28.9,26.2,24.1,25.1,22.6,20.0,90,86,82,30.21,30.07,17,12,21,0.00
2013-3-2,26.5,21.6,13.2,20.9,16.7,9.9,87,81,70,30.23,30.18,13,7,16,0.00
2013-3-3,30.9,24.6,10.8,19.4,15.2,8.4,90,69,49,30.20,30.11,4,1,6,0.00
2013-3-4,32.6,29.2,21.0,27.8,23.8,16.1,85,80,75,30.13,29.95,8,4,14,0.00
2013-3-5,32.5,30.1,26.3,31.2,29.0,25.3,97,96,91,29.99,29.80,17,8,22,0.03
2013-3-6,29.6,27.4,24.7,25.3,23.8,21.8,96,86,82,30.34,30.04,17,8,24,0.00
2013-3-7,37.5,26.0,14.3,27.3,21.4,12.4,94,83,61,30.44,30.39,4,1,8,0.14
2013-3-8,39.8,32.2,15.3,30.8,26.4,13.4,96,80,70,30.49,30.37,3,2,7,0.10
2013-3-9,42.4,40.0,36.5,37.2,35.0,31.2,86,82,77,30.14,29.84,5,3,8,0.05
2013-3-10,49.0,45.7,37.3,47.3,44.0,34.8,98,94,87,29.86,29.55,10,3,10,0.81
2013-3-11,42.9,35.1,30.6,42.4,33.3,27.2,98,93,87,29.86,29.58,11,7,16,0.05
2013-3-12,36.8,32.0,26.3,29.7,26.7,20.9,92,81,72,30.06,29.86,15,10,19,0.00
2013-3-13,32.9,27.1,23.1,22.6,19.7,16.1,85,74,52,30.36,30.09,14,8,19,0.00
2013-3-14,35.7,32.0,25.6,32.2,27.6,23.3,93,84,69,30.34,30.16,4,2,8,0.02
2013-3-15,46.3,39.7,28.1,40.8,36.6,26.4,95,89,79,29.98,29.73,8,2,10,0.00
2013-3-16,35.3,32.3,28.5,31.7,29.1,24.8,97,88,81,30.12,29.86,13,8,16,0.00
2013-3-17,36.4,31.8,27.7,27.5,24.9,21.6,87,75,67,30.20,29.95,11,7,17,0.00
2013-3-18,35.7,29.7,22.8,33.6,26.3,15.4,95,87,73,29.95,29.66,15,8,23,0.01
2013-3-19,35.9,28.3,17.6,21.5,16.6,10.3,75,62,48,30.15,29.89,16,11,21,0.00
2013-3-20,26.5,20.5,13.3,18.6,11.1,5.4,78,67,54,30.17,30.09,15,11,20,0.00
2013-3-21,32.8,27.4,12.6,20.5,16.3,7.6,91,64,48,30.10,30.03,8,4,11,0.00
2013-3-22,42.3,30.3,16.5,25.1,19.7,14.2,93,68,43,30.10,30.02,5,1,8,0.00
2013-3-23,43.7,40.3,28.6,30.0,27.0,24.3,84,60,50,30.07,29.98,10,6,11,0.00
2013-3-24,33.5,32.1,29.1,29.0,27.8,26.8,96,84,78,29.78,29.66,17,13,21,0.00
2013-3-25,35.2,31.9,26.4,30.4,27.3,23.1,87,83,79,30.09,29.79,16,12,23,0.00
2013-3-26,33.3,31.5,31.0,26.9,26.4,25.2,84,81,72,30.28,30.13,6,4,8,0.00
2013-3-27,43.0,37.4,26.2,29.4,25.7,20.8,92,64,47,30.35,30.29,9,4,12,0.00
2013-3-28,51.1,41.8,24.1,34.4,29.4,22.9,95,64,43,30.38,30.28,4,1,7,0.00
2013-3-29,54.6,50.9,33.1,38.7,33.9,26.3,92,53,43,30.32,30.21,5,2,7,0.00
2013-3-30,58.5,48.7,30.1,43.6,37.9,24.9,91,67,50,30.23,29.86,8,4,13,0.00
2013-3-31,60.1,48.5,37.2,43.5,37.5,27.3,95,68,40,29.91,29.74,16,9,23,0.00
2013-4-1,40.8,33.9,27.6,27.9,20.4,16.3,77,59,40,30.22,29.92,12,8,19,0.00
2013-4-2,44.9,33.0,18.7,22.3,17.1,12.6,89,56,27,30.32,30.21,11,5,14,0.00
2013-4-3,49.5,38.7,22.1,21.6,18.3,13.8,84,46,28,30.47,30.33,7,2,13,0.00
2013-4-4,59.4,52.2,34.0,26.3,23.9,21.8,68,35,24,30.22,29.99,8,4,12,0.00
2013-4-5,55.7,43.4,27.5,30.0,23.6,19.2,88,48,26,30.20,30.08,10,5,12,0.00
2013-4-6,69.6,55.1,33.8,48.5,36.5,22.8,79,52,29,30.11,29.62,13,6,20,0.09
2013-4-7,67.4,54.0,43.8,43.7,41.6,36.7,87,64,42,29.94,29.87,9,4,17,0.00
2013-4-8,64.1,28.6,56.1,56.1,-24.6,-99.9,93,42,73,29.81,29.61,16,-507,20,0.55
2013-4-9,-200.0,0.0,200.0,-99.9,-99.9,-99.9,0,0,100,29.84,29.75,0,-999,0,0.00
2013-7-11,81.2,75.2,59.6,59.4,57.2,54.5,94,56,41,30.05,30.02,3,1,4,0.00
2013-7-12,84.1,73.1,63.8,61.6,56.3,50.2,85,59,34,30.14,30.05,4,1,7,0.00
2013-7-13,83.9,70.9,63.1,63.9,61.5,59.8,90,74,49,30.12,30.06,2,1,4,0.00
2013-7-14,87.0,83.7,79.9,72.7,71.1,69.2,71,66,61,30.13,30.12,4,2,8,0.00
2013-7-15,88.8,84.6,77.5,76.9,75.0,73.6,88,73,66,30.23,30.16,3,1,4,0.10
2013-7-16,91.0,84.7,77.9,76.9,75.0,71.6,81,73,59,30.28,30.22,3,1,4,0.00
2013-7-17,92.6,85.2,72.6,76.2,74.0,70.8,94,70,52,30.29,30.15,6,1,6,0.00
2013-7-18,94.4,89.7,77.9,78.7,75.6,73.7,88,64,53,30.12,29.99,8,2,8,0.00
2013-7-19,93.3,88.4,81.6,76.6,74.5,70.4,77,64,49,29.90,29.81,16,4,16,0.00
2013-7-20,85.8,80.8,74.8,70.3,67.6,62.4,81,66,46,29.85,29.79,9,3,9,0.06
2013-7-21,83.4,80.0,74.9,72.9,72.1,71.1,93,78,67,29.88,29.84,2,1,4,0.00
2013-7-22,85.6,79.5,73.3,72.2,70.5,68.3,92,75,58,29.81,29.77,5,2,7,0.00
2013-7-23,78.5,74.6,71.5,70.7,67.9,66.5,85,80,71,29.81,29.77,6,6,7,0.02
2013-7-24,75.1,67.1,56.2,59.8,55.9,52.2,93,69,49,30.04,29.94,8,3,14,0.00
2013-7-25,81.0,66.8,48.9,61.6,55.9,47.5,97,71,47,30.11,30.02,3,1,10,0.00
2013-7-26,73.7,67.0,60.7,68.2,62.3,56.7,92,85,76,30.03,29.88,5,1,13,0.01
2013-7-27,67.0,59.8,53.6,56.8,52.8,47.2,94,78,57,29.94,29.88,10,4,19,0.00
2013-7-28,70.9,60.5,50.2,55.3,50.8,47.4,95,72,48,30.03,29.90,12,4,20,0.00
2013-7-29,78.5,63.2,47.7,60.8,54.1,46.9,98,76,47,30.15,30.04,6,1,12,0.00
2013-7-30,67.7,62.6,55.8,65.1,60.0,54.1,95,91,84,30.16,30.06,2,0,8,0.20
2013-7-31,74.6,70.1,64.6,68.5,66.4,63.6,98,88,78,30.00,29.94,5,2,8,0.08
2013-8-1,79.4,69.4,59.0,65.0,60.4,54.7,99,76,45,30.00,29.93,10,3,20,0.00
2013-8-2,85.3,73.5,63.4,72.4,66.1,58.7,97,78,59,29.93,29.83,10,2,18,1.00
2013-8-3,78.6,72.1,58.7,66.2,60.6,55.3,97,69,49,30.10,30.01,6,3,11,0.01
2013-8-4,79.1,68.2,54.7,63.6,57.8,51.1,98,72,39,30.17,30.07,5,1,9,0.00
2013-8-5,74.8,67.3,56.4,66.8,62.0,54.9,96,83,68,30.10,29.85,3,0,11,0.06
2013-8-6,84.5,74.2,63.4,76.1,69.5,62.5,98,86,70,29.88,29.80,4,1,9,0.00
2013-8-7,84.3,76.1,68.7,77.1,71.3,66.2,96,86,73,29.91,29.78,10,2,25,0.72
2013-8-8,78.2,69.8,61.2,67.8,64.0,58.3,98,83,63,29.98,29.91,8,3,15,0.00
2013-8-9,81.2,70.0,55.9,69.4,63.1,55.1,98,80,58,30.03,29.96,4,1,9,0.00
2013-8-10,79.3,69.6,58.4,67.2,62.2,56.8,96,79,55,30.11,30.03,5,1,11,0.00
2013-8-11,83.9,69.3,52.3,68.4,61.6,51.6,98,79,54,30.13,30.01,3,0,9,0.00
2013-8-12,82.2,72.4,61.8,72.2,66.6,60.6,96,83,65,30.04,29.85,7,2,13,0.00
2013-8-13,71.0,64.4,53.3,64.3,56.6,49.3,98,78,51,30.12,29.91,8,3,15,0.00
2013-8-14,73.7,65.0,51.2,58.1,53.7,49.8,98,69,46,30.22,30.13,4,1,11,0.00
2013-8-15,74.9,61.2,47.1,61.5,54.6,46.3,98,81,50,30.18,30.09,3,0,8,0.00
2013-8-16,70.9,56.6,50.1,61.7,54.7,49.4,98,94,71,30.16,30.12,3,0,4,0.00
2013-8-17,60.6,56.4,52.6,57.4,54.3,51.2,95,92,89,30.17,30.14,0,0,1,0.00
2013-8-20,87.1,81.8,68.8,71.5,67.3,63.9,90,63,47,30.10,30.00,3,1,9,0.00
2013-8-21,88.8,80.9,69.1,72.6,69.0,65.7,89,69,51,30.07,29.96,3,1,12,0.00
2013-8-22,74.3,70.5,64.6,70.5,67.8,63.5,98,91,83,30.13,29.98,9,1,16,1.62
2013-8-23,80.9,69.6,59.6,69.4,63.4,56.5,99,83,52,30.14,30.07,8,2,13,0.01
2013-8-24,86.7,71.5,54.7,71.3,63.1,53.9,98,77,54,30.23,30.14,2,1,9,0.00
2013-8-25,88.5,75.2,64.4,74.1,65.5,58.3,93,73,56,30.24,30.12,3,1,8,0.00
2013-8-26,84.4,69.6,62.5,74.7,65.5,60.9,95,87,70,30.15,30.11,5,1,7,0.00
2013-8-27,92.4,84.9,74.8,78.1,74.4,68.4,91,71,57,29.98,29.85,4,2,13,0.00
2013-8-28,89.0,78.8,69.7,80.9,72.3,65.4,96,81,71,29.99,29.84,7,2,10,0.00
2013-8-29,86.6,73.7,66.9,75.0,70.0,65.5,98,89,63,30.05,29.98,5,1,9,0.00
2013-8-30,96.6,84.1,71.1,79.7,72.4,64.7,91,69,54,29.88,29.74,14,3,21,0.04
2013-8-31,83.7,74.1,67.1,75.7,70.0,65.2,96,87,75,29.81,29.72,8,2,13,0.00
2013-9-1,87.0,74.0,60.5,75.4,68.5,59.9,99,84,64,29.79,29.71,7,1,12,0.00
2013-9-2,78.2,68.4,56.9,67.5,62.3,55.2,96,82,60,29.97,29.79,6,2,12,0.00
2013-9-3,75.1,63.1,52.4,63.7,57.0,51.6,98,82,55,30.09,29.97,4,1,15,0.00
2013-9-4,82.1,64.6,49.1,65.9,57.7,48.4,99,81,44,30.14,30.04,5,1,10,0.00
2013-9-5,79.2,66.8,55.6,70.4,60.7,52.0,98,82,60,30.19,30.10,7,3,12,0.00
2013-9-6,87.9,71.1,55.2,70.5,61.6,52.4,95,74,49,30.19,29.99,2,1,9,0.00
2013-9-7,87.9,73.0,61.8,72.7,65.2,60.1,95,79,49,30.00,29.86,3,1,10,0.02
2013-9-8,84.5,74.9,68.0,72.5,69.2,65.7,95,83,64,29.96,29.87,8,2,16,0.00
2013-9-9,95.8,80.5,68.0,77.1,72.2,66.8,98,78,48,29.91,29.80,3,1,8,0.00
2013-9-10,94.9,80.8,68.0,72.8,68.4,62.9,92,68,37,30.00,29.87,9,2,22,0.00
2013-9-11,90.5,78.1,67.9,72.0,68.4,64.8,92,73,50,30.03,29.96,8,2,15,0.06
2013-9-12,80.9,71.0,55.0,69.2,60.2,50.3,96,72,36,30.07,29.94,10,4,21,0.00
2013-9-13,69.0,57.0,43.7,52.0,46.7,41.4,96,72,39,30.18,30.06,7,2,14,0.00
2013-9-14,74.4,55.0,37.4,49.6,44.1,36.5,98,72,34,30.20,30.03,3,1,11,0.00
2013-9-15,65.1,58.0,50.9,60.2,53.2,45.0,97,84,68,30.14,29.96,5,2,11,0.15
2013-9-16,69.3,59.4,49.4,55.6,51.7,46.0,98,78,47,30.33,30.14,8,5,15,0.00
2013-9-17,73.8,64.8,48.6,58.9,55.1,47.7,97,72,54,30.30,30.09,3,1,9,0.00
2013-9-18,85.7,69.7,57.0,73.9,61.8,53.8,89,77,57,30.09,29.88,4,1,11,0.05
2013-9-19,92.9,84.4,71.6,69.7,68.1,64.6,80,59,43,29.84,29.74,7,3,12,0.00
2013-9-20,72.7,66.3,54.9,67.5,61.1,51.9,97,84,58,29.85,29.75,9,4,17,0.10
2013-9-21,69.9,57.4,45.4,53.3,49.1,43.5,95,77,45,29.95,29.83,8,3,18,0.00
2013-9-22,71.1,52.9,38.1,51.3,44.1,37.3,98,77,42,30.05,29.95,4,1,12,0.00
2013-9-27,67.3,62.3,55.9,51.0,50.2,49.5,82,66,54,30.04,30.01,0,0,3,0.00
2013-9-28,85.1,69.5,53.6,66.3,57.2,50.3,95,68,38,30.05,29.87,7,2,18,0.10
2013-9-29,70.8,58.9,42.7,61.0,49.8,40.8,98,76,35,30.06,29.93,7,3,18,0.20
2013-9-30,78.2,58.8,37.7,57.4,47.6,36.9,98,72,33,30.01,29.86,3,1,8,0.00
2013-10-1,75.2,63.7,58.3,66.6,61.3,56.8,98,92,72,29.96,29.89,3,2,11,0.00
2013-10-3,82.2,71.9,63.9,72.3,66.9,62.2,98,85,57,29.93,29.80,4,1,12,1.01
2013-10-4,85.2,72.2,62.2,72.5,66.5,61.3,98,83,58,29.95,29.87,3,1,11,0.01
2013-10-5,78.1,70.9,67.9,73.1,68.4,66.6,97,92,80,29.91,29.86,3,1,7,0.03
2013-10-6,60.0,51.8,45.7,45.8,41.7,39.2,89,69,53,29.80,29.72,8,4,18,0.08
2013-10-7,70.0,54.1,41.5,49.4,45.0,40.4,97,75,39,30.08,29.79,8,4,15,0.00
2013-10-8,78.1,59.7,43.3,55.1,47.5,42.2,98,69,33,30.18,30.08,2,1,10,0.00
2013-10-9,74.9,57.0,41.2,51.9,45.8,39.9,98,71,31,30.23,30.10,3,0,10,0.00
2013-10-10,77.0,57.6,39.7,59.1,49.7,38.4,98,78,46,30.16,30.02,2,0,8,0.00
2013-10-11,79.2,65.3,55.2,62.3,55.7,52.5,91,73,47,30.04,29.90,4,1,11,0.00
2013-10-12,70.1,61.4,44.3,64.2,54.2,41.6,94,79,46,30.18,29.92,7,2,14,0.20
2013-10-13,65.3,49.5,36.9,45.3,38.0,32.8,98,70,30,30.40,30.19,8,2,21,0.00
2013-10-14,67.2,49.2,32.5,47.2,39.1,31.6,98,73,34,30.40,30.11,6,1,16,0.00
2013-10-15,69.3,58.0,47.9,62.9,51.1,42.3,95,78,63,30.11,29.77,9,2,18,0.03
2013-10-16,54.0,49.8,42.7,45.5,43.8,39.8,90,80,71,29.97,29.88,9,5,17,0.00
2013-10-17,58.3,48.1,38.6,47.3,43.0,36.8,96,84,49,29.95,29.84,9,2,18,0.15
2013-10-18,50.2,44.2,38.7,42.5,39.2,36.9,96,83,61,30.00,29.86,9,3,16,0.01
2013-10-19,45.1,42.1,38.7,40.7,39.4,36.6,92,90,80,29.96,29.89,5,1,8,0.00
2013-10-21,48.5,42.5,30.7,36.2,29.6,24.7,84,61,45,30.00,29.92,11,6,22,0.01
2013-10-22,40.9,37.5,34.1,35.8,33.7,31.1,95,86,77,30.00,29.90,7,2,8,0.33
2013-10-23,45.5,40.2,33.1,34.9,30.8,28.3,93,70,54,30.07,30.02,8,5,19,0.01
2013-10-24,41.5,36.7,30.3,33.9,28.3,23.9,93,72,50,30.34,30.06,10,5,17,0.00
2013-10-25,52.0,38.1,24.7,33.0,27.4,21.9,90,68,40,30.45,30.11,8,3,18,0.00
2013-10-26,43.3,40.5,38.1,32.8,30.1,29.2,71,66,59,30.11,29.92,5,3,13,0.00
2013-10-28,43.3,42.1,41.2,39.1,38.6,37.9,88,87,85,30.34,30.32,8,6,13,0.00
2013-10-29,41.2,36.6,32.8,38.2,34.9,31.7,97,93,88,30.34,30.30,6,2,12,0.00
2013-10-31,63.2,61.7,61.0,61.8,60.7,60.1,97,96,95,29.58,29.33,4,2,11,0.86
2013-11-3,53.7,43.6,25.8,41.9,36.0,25.1,99,76,52,30.32,30.21,3,1,10,0.01
2013-11-4,57.4,49.4,40.3,45.8,41.2,35.5,84,74,59,30.24,30.08,7,2,18,0.00
2013-11-5,54.9,52.4,50.4,51.6,48.8,45.5,95,88,80,30.25,29.95,6,2,17,0.21
2013-11-6,57.4,46.2,33.9,56.0,43.7,29.0,96,91,80,30.20,29.81,13,5,23,0.53
2013-11-7,45.2,34.0,27.4,38.3,30.2,25.6,94,86,70,30.29,30.20,12,3,20,0.00
2013-11-8,50.4,39.2,25.3,35.6,30.6,24.1,96,73,45,30.36,29.97,6,2,18,0.01
2013-11-9,59.7,50.4,41.0,43.2,39.0,35.8,86,66,47,30.11,29.90,14,7,25,0.00
2013-11-13,39.3,34.5,30.5,24.4,22.9,20.1,73,63,48,30.53,30.21,7,5,15,0.00
2013-11-14,51.0,38.5,29.2,29.3,25.7,21.5,74,61,40,30.21,29.97,8,4,18,0.00
2013-11-15,46.8,40.3,34.4,39.0,31.8,28.2,78,72,59,30.01,29.95,5,2,12,0.00
2013-11-17,60.5,49.0,42.9,56.9,43.7,37.5,92,82,76,29.80,29.18,20,13,42,0.65
2013-11-18,44.9,38.8,29.4,38.8,31.8,25.6,88,76,55,30.27,29.80,15,8,29,0.00
2013-11-19,43.5,32.9,22.4,31.5,27.6,20.5,96,82,59,30.38,30.26,5,1,14,0.00
2013-11-20,43.3,36.5,28.1,38.1,32.1,26.0,94,85,67,30.29,30.09,5,2,11,0.19
2013-11-21,49.3,44.9,40.6,46.4,42.7,37.9,98,92,85,30.21,30.10,5,1,8,0.14
2013-11-22,42.3,35.1,25.9,41.0,32.4,23.4,95,90,80,30.51,30.20,13,7,20,0.02
2013-11-25,32.2,29.6,25.1,25.6,22.9,17.6,88,76,63,30.27,30.12,8,4,17,0.00
2013-11-26,35.9,28.0,16.3,28.4,21.3,7.9,89,76,59,30.22,30.06,17,7,25,0.00
2013-11-27,27.6,18.4,11.9,14.4,10.2,6.0,85,71,53,30.31,30.20,11,6,20,0.00
2013-11-28,35.6,24.9,16.3,20.0,16.1,13.1,90,70,51,30.53,30.22,7,3,14,0.00
2013-11-29,37.3,24.2,9.8,23.0,17.0,7.5,94,76,50,30.66,30.41,3,1,8,0.00
2013-11-30,51.2,37.6,28.9,34.2,28.7,22.7,87,71,51,30.41,30.07,6,3,12,0.00
2013-12-1,45.0,34.4,25.6,34.9,30.0,23.8,96,85,63,30.13,29.98,5,1,9,0.00
2013-12-2,43.2,36.8,31.3,35.3,32.4,29.2,95,85,72,29.98,29.75,4,1,12,0.03
2013-12-3,49.1,46.3,39.6,48.3,45.5,38.8,98,97,95,29.71,29.63,5,2,11,0.00
2013-12-4,55.5,48.6,34.2,54.6,47.3,31.6,98,95,87,29.76,29.48,15,4,22,0.01
2013-12-5,33.9,24.0,19.7,31.6,18.3,12.8,91,79,70,30.31,29.76,13,8,23,0.00
2013-12-6,19.7,18.3,16.5,14.1,12.4,10.4,80,77,76,30.42,30.28,9,7,16,0.00
2013-12-7,9.6,9.0,8.2,6.0,5.0,4.2,85,83,82,30.63,30.61,0,0,13,0.00
2013-12-8,12.5,12.3,11.9,8.3,8.0,7.7,83,82,82,30.57,30.56,7,6,8,0.00
2013-12-9,15.6,7.8,-0.6,9.4,1.3,-5.3,80,74,70,30.30,30.24,11,5,20,0.00
2013-12-10,23.4,12.8,-4.1,14.2,6.0,-7.5,85,74,61,30.36,30.10,15,5,25,0.00
2013-12-11,19.7,11.9,-2.4,15.1,6.6,-7.9,92,79,69,30.65,30.31,13,5,18,0.00
2013-12-12,23.9,10.4,-4.1,15.7,4.8,-8.5,91,78,63,30.62,30.26,10,2,18,0.00
2013-12-13,35.8,24.3,9.9,28.8,20.2,7.3,96,85,64,30.26,30.07,8,2,12,0.00
2013-12-14,30.8,27.7,17.4,29.3,26.2,14.2,97,94,87,30.08,29.91,14,8,19,0.00
2013-12-15,14.1,13.7,12.8,10.5,9.2,8.0,90,82,77,30.17,30.11,6,2,14,0.00
2013-12-16,21.5,15.5,7.4,16.0,12.5,4.8,94,88,76,30.18,30.05,6,2,8,0.00
2013-12-17,33.2,24.6,17.7,27.6,20.8,14.0,95,86,69,30.18,30.03,12,7,21,0.00
2013-12-18,33.2,22.6,6.3,28.8,16.2,3.8,92,77,55,30.21,29.88,10,4,21,0.00
2013-12-19,44.8,38.1,31.6,38.3,35.1,29.6,97,89,76,29.92,29.77,3,1,10,0.12
2013-12-20,36.1,33.2,30.4,35.6,32.6,29.7,98,98,97,29.83,29.72,9,4,14,0.17
2013-12-21,31.6,29.4,28.3,30.8,28.3,26.6,98,95,92,29.86,29.75,8,4,11,0.00
2013-12-22,29.6,27.0,21.4,27.4,24.6,18.7,93,90,89,30.19,29.83,9,7,15,0.00
2013-12-23,21.5,9.2,0.1,19.0,5.3,-4.5,91,84,78,30.55,30.19,12,8,18,0.00
2013-12-24,19.0,7.3,-3.7,13.7,2.5,-7.6,84,80,72,30.65,30.38,7,3,14,0.00
2013-12-25,27.7,24.5,19.0,25.9,21.3,13.5,94,87,78,30.38,30.17,12,5,18,0.00
2013-12-26,36.0,27.4,14.1,30.7,22.5,11.5,91,82,72,30.33,30.18,11,4,19,0.01
2013-12-27,41.7,33.1,23.1,34.9,29.6,22.1,97,87,76,30.32,30.13,6,2,12,0.00
2013-12-28,50.3,39.0,32.3,39.8,33.5,29.4,91,81,64,30.13,29.86,6,3,17,0.00
2013-12-29,36.2,28.3,10.0,31.5,25.6,6.5,96,89,83,30.25,29.79,14,8,22,0.00
2013-12-30,12.6,7.2,0.9,8.7,2.4,-3.7,90,81,72,30.38,30.25,8,3,15,0.00
2013-12-31,15.6,10.6,-3.7,11.7,7.0,-6.3,92,85,75,30.44,30.30,10,4,14,0.00
2014-1-1,22.8,18.9,14.2,19.6,16.3,11.3,93,89,82,30.30,30.17,14,9,19,0.00
2014-1-2,15.6,11.3,1.5,13.4,7.8,-2.5,91,85,79,30.47,30.15,17,11,23,0.00